Simultaneous Nadir Overpasses (SNOs) Predictions

Prediction of SNOs between GOES-16 and NOAA-19 Satellite Orbit:

Table of predicted SNOs for the next 14.0 days since TLE Epoch: 10/26/2019
Index Date Time (GOES-16) GOES-16 Lat,Lon NOAA-19 Lat,Lon Distance(km) Time Diff (sec)
1 10/26/2019 10:29:14 -0.00, -75.20 0.54, -77.65 278.80 80
2 10/27/2019 10:14:54 -0.00, -75.20 -0.07, -74.79 46.41 80
3 10/28/2019 10:03:16 -0.00, -75.21 -0.74, -71.95 371.56 80
4 10/30/2019 22:24:26 0.00, -75.22 -0.43, -76.96 198.80 80
5 10/31/2019 22:15:27 0.00, -75.23 0.27, -74.12 126.98 80
6 11/01/2019 22:03:48 0.00, -75.24 0.91, -71.27 452.86 80
7 11/03/2019 10:36:28 -0.01, -75.26 0.90, -79.08 437.16 80
8 11/04/2019 10:24:50 -0.01, -75.27 0.23, -76.24 111.07 80
9 11/05/2019 10:10:31 -0.02, -75.29 -0.45, -73.40 215.26 80
10 11/07/2019 22:34:19 0.02, -75.33 -0.70, -78.40 351.05 80
11 11/08/2019 22:22:41 0.02, -75.35 -0.00, -75.56 24.12 80




NCC Satellite Simultaneous Nadir Overpasses (SNOs) Prediction Service
